[[{"header":{"parameterUnit":"m.s-1","parameterCategory":1,"la1":30.2991,"la2":30.254,"lo1":-89.0895,"lo2":-89.0444,"dy":0.0017,"dx":0.0017,"nx":28,"ny":28,"refTime":"2026-02-05T09:00:00:Z","depth":0,"parameterNumber":2,"parameterNumberName":"U-component_of_WINDS"},"data":[0,0,0,0,0,0,0,0,0,0,0,0,0,0,0,0,0,0,0,0,0,0,0,0,0,0,0,0,0,0,0,0,0,0,0,0,0,0,0,0,0,0,0,0,0,0,0,0,0,0,0,0,0,0,0,0,0,0,4.0848,4.0849,0,4.094,4.0941,4.0942,4.0878,4.0876,4.0873,4.087,4.0965,4.097,4.0975,0,0,0,0,0,0,0,0,0,0,0,0,0,4.0619,4.0624,4.0848,4.0849,4.085,4.0939,4.0941,4.0942,4.0879,4.0875,4.0872,4.0869,4.0963,4.097,4.0976,0,0,0,0,0,0,0,0,0,0,0,0,0,4.0716,4.0625,4.0847,4.0829,4.0828,4.0939,4.0941,4.0942,4.088,4.0875,4.0871,4.0867,4.0961,4.0969,4.0977,4.1111,0,0,4.1,4.1004,0,0,0,0,0,0,0,0,4.071,4.0724,4.0831,4.0831,4.083,4.0893,4.0895,4.0999,4.0881,4.086,4.087,4.0865,4.0945,4.0954,4.098,4.1115,4.1119,4.1001,4.1006,4.1009,4.1011,0,0,0,0,0,0,0,4.0704,4.072,4.0884,4.0832,4.0832,4.0817,4.0826,4.0914,4.0925,4.0862,4.0857,4.0869,4.0944,4.0973,4.0982,4.1121,4.1001,4.1008,4.1013,4.1016,4.1372,4.1376,0,0,0,0,0,0,4.0698,4.0715,4.0881,4.0887,4.0758,4.0825,4.0835,4.0877,4.0924,4.0927,4.0873,4.0866,4.0962,4.0973,4.0985,4.1146,4.1009,4.1017,4.1021,4.1367,4.1373,4.1378,0,0,0,0,0,0,4.0694,4.0714,4.0877,4.08,4.0819,4.0833,4.0881,4.0881,4.091,4.0933,4.0934,4.09,4.0959,4.0974,4.108,4.1149,4.102,4.1027,4.1361,4.1369,4.1375,4.1469,0,0,0,0,0,0,4.0688,4.0713,4.0763,4.0801,4.0824,4.0971,4.0886,4.0886,4.0924,4.0916,4.0959,4.0962,4.0957,4.1069,4.1088,4.1157,4.1033,4.1355,4.1365,4.1373,4.146,4.1478,4.1494,0,0,0,0,0,4.068,4.0786,4.0766,4.0786,4.0887,4.0975,4.0987,4.0979,4.093,4.0981,4.0995,4.0961,4.1138,4.108,4.1101,4.1174,4.1351,4.1362,4.1372,4.1452,4.1474,4.1494,0,0,0,0,0,0,4.0755,4.079,4.0769,4.089,4.093,4.0964,4.1028,4.1003,4.1057,4.1048,4.1035,4.1045,4.1157,4.1176,4.1111,4.1307,4.1237,4.1252,4.129,4.1312,4.1329,4.1322,4.104,0,0,0,0,0,4.0786,4.0853,4.0881,4.0985,4.1006,4.1014,4.1052,4.1042,4.1082,4.1099,4.1121,4.1163,4.1228,4.1271,4.1332,4.1462,4.1471,4.1522,4.154,4.1554,4.1567,4.1639,4.1662,4.1413,4.1413,4.1413,0,0,4.085,4.0877,4.0921,4.1001,4.103,4.1102,4.1028,4.1106,4.1159,4.1111,4.1212,4.1231,4.1276,4.1395,4.1449,4.1415,4.1638,4.1567,4.1578,4.1584,4.1652,4.1676,4.1697,4.1421,4.1419,4.1418,0,0,4.1003,4.1031,4.1121,4.1153,4.1198,4.1203,4.1225,4.1263,4.1274,4.1375,4.1341,4.1404,4.1516,4.155,4.1582,4.1751,4.1721,4.1771,4.1861,4.1931,4.1951,4.1968,4.2029,4.2051,4.1785,4.1785,4.1785,0,4.1077,4.1182,4.1171,4.1252,4.1289,4.1249,4.1341,4.1372,4.1436,4.1463,4.1423,4.1564,4.1592,4.1719,4.1761,4.1788,4.1813,4.1766,4.1949,4.1966,4.1982,4.204,4.2063,4.1791,4.179,4.1789,4.1789,0,4.1272,4.1345,4.1413,4.1476,4.152,4.1607,4.1609,4.1656,4.1643,4.1652,4.1757,4.1789,4.1857,4.1886,4.1874,4.2013,4.199,4.195,4.188,4.2012,4.2066,4.2088,4.1799,4.1797,4.1795,4.1794,0,0,4.1474,4.153,4.1555,4.1584,4.1633,4.169,4.1775,4.1841,4.1882,4.1928,4.1999,4.2096,4.206,4.2097,4.2088,4.215,4.2282,4.2102,4.2103,4.2135,4.2439,4.2468,4.2494,4.2263,4.2267,4.2271,4.2435,0,4.163,4.1778,4.1771,4.191,4.1979,4.1943,4.2017,4.2056,4.2067,4.2128,4.214,4.2209,4.2156,4.2178,4.2238,4.2254,4.2343,4.2242,4.2331,4.2334,4.2321,4.2522,4.2554,4.2707,4.2456,4.246,4.2462,0,4.1832,4.1885,4.2031,4.2071,4.2099,4.2166,4.2227,4.2285,4.2329,4.2333,4.2375,4.2356,4.2444,4.2372,4.2493,4.2424,4.246,4.2474,4.2479,4.2487,4.2406,4.2536,4.2756,4.2779,4.2495,4.2493,4.249,0,4.1966,4.2074,4.2176,4.2201,4.225,4.2298,4.2321,4.236,4.24,4.2454,4.248,4.2543,4.2578,4.2628,4.2627,4.2575,4.275,4.2678,4.2757,4.2757,4.2795,4.2793,4.3024,4.2819,4.2818,4.2818,4.2817,0,4.2142,4.2233,4.2237,4.2299,4.24,4.2392,4.2493,4.2511,4.2546,4.2612,4.2585,4.2648,4.2643,4.2707,4.2708,4.2808,4.2824,4.2831,4.283,4.2833,4.2833,4.2857,4.2846,4.2824,4.2823,4.2821,4.282,0,4.2308,4.2314,4.2423,4.246,4.2472,4.2545,4.2577,4.2637,4.2647,4.2731,4.275,4.2766,4.284,4.2844,4.293,4.293,4.3053,4.304,4.3038,4.3036,4.3115,4.3108,4.337,4.3404,4.3176,4.3178,4.318,0,4.242,4.2489,4.2534,4.2576,4.2602,4.267,4.2712,4.2707,4.2751,4.2807,4.2861,4.2932,4.2989,4.3109,4.3128,4.3194,4.3182,4.327,4.3192,4.3194,4.3185,4.3181,4.3188,4.3285,4.3287,4.329,4.3291,0,4.2618,4.2618,4.2678,4.2741,4.2791,4.284,4.2886,4.2922,4.2923,4.2975,4.305,4.3094,4.3182,4.3254,4.3318,4.3342,4.3318,4.3316,4.3338,4.3342,4.3338,4.3342,4.308,4.331,4.3308,4.3306,4.3305,4.3305,4.276,4.2821,4.2862,4.2931,4.2965,4.3009,4.3068,4.3085,4.3147,4.3218,4.3212,4.3296,4.3339,4.3423,4.3452,4.3518,4.3488,4.352,4.3528,4.3536,4.3545,4.3328,4.353,4.3529,4.3529,4.3528,4.3528,0,4.2957,4.2983,4.3046,4.3111,4.3166,4.3138,4.3188,4.3235,4.3309,4.3352,4.3408,4.3496,4.3566,4.3591,4.3659,4.3707,4.3698,4.3725,4.3722,4.3728,4.3567,4.3541,4.3732,4.3732,4.3732,4.3732,4.3732,4.3732,4.3066,4.3167,4.3172,4.329,4.3315,4.3397,4.3428,4.3468,4.3502,4.3601,4.3659,4.3674,4.371,4.3781,4.3844,4.385,4.3877,4.3909,4.391,4.376,4.3739,4.3719,4.3695,4.3915,4.3915,4.4066,4.4067,4.4068]},{"header":{"parameterUnit":"m.s-1","parameterCategory":1,"la1":30.2991,"la2":30.254,"lo1":-89.0895,"lo2":-89.0444,"dy":0.0017,"dx":0.0017,"nx":28,"ny":28,"refTime":"2026-02-05T09:00:00:Z","depth":0,"parameterNumber":3,"parameterNumberName":"V-component_of_WINDS"},"data":[0,0,0,0,0,0,0,0,0,0,0,0,0,0,0,0,0,0,0,0,0,0,0,0,0,0,0,0,0,0,0,0,0,0,0,0,0,0,0,0,0,0,0,0,0,0,0,0,0,0,0,0,0,0,0,0,0,0,-3.8202,-3.8204,0,-3.8366,-3.8368,-3.8369,-3.8358,-3.8356,-3.8353,-3.8351,-3.8519,-3.8526,-3.8532,0,0,0,0,0,0,0,0,0,0,0,0,0,-3.7882,-3.7888,-3.8202,-3.8204,-3.8206,-3.8365,-3.8368,-3.837,-3.8358,-3.8355,-3.8353,-3.835,-3.8517,-3.8525,-3.8533,0,0,0,0,0,0,0,0,0,0,0,0,0,-3.8031,-3.789,-3.8202,-3.822,-3.8223,-3.8365,-3.8368,-3.837,-3.8359,-3.8355,-3.8352,-3.8348,-3.8514,-3.8524,-3.8534,-3.8669,0,0,-3.8565,-3.8569,0,0,0,0,0,0,0,0,-3.8022,-3.8042,-3.8215,-3.8219,-3.8223,-3.8338,-3.8316,-3.8471,-3.836,-3.8307,-3.8351,-3.8347,-3.8462,-3.8476,-3.8515,-3.8677,-3.8684,-3.8566,-3.8572,-3.8576,-3.8579,0,0,0,0,0,0,0,-3.8012,-3.8035,-3.8267,-3.8218,-3.8222,-3.822,-3.8237,-3.8345,-3.8403,-3.8312,-3.8311,-3.8331,-3.8463,-3.8505,-3.8518,-3.8687,-3.8565,-3.8574,-3.8581,-3.8585,-3.8969,-3.8973,0,0,0,0,0,0,-3.7997,-3.8027,-3.8262,-3.8272,-3.8111,-3.8229,-3.8248,-3.8304,-3.8402,-3.8413,-3.8334,-3.833,-3.8489,-3.8507,-3.8524,-3.869,-3.8576,-3.8586,-3.8591,-3.8965,-3.897,-3.8974,0,0,0,0,0,0,-3.799,-3.8018,-3.8255,-3.8149,-3.8179,-3.8238,-3.8302,-3.831,-3.8351,-3.8418,-3.8429,-3.8366,-3.8487,-3.851,-3.8633,-3.8695,-3.859,-3.8599,-3.896,-3.8966,-3.8972,-3.902,0,0,0,0,0,0,-3.7981,-3.8016,-3.8068,-3.815,-3.8185,-3.8361,-3.8306,-3.8315,-3.8369,-3.8365,-3.8451,-3.8462,-3.8486,-3.8618,-3.8643,-3.8707,-3.8607,-3.8955,-3.8963,-3.897,-3.9014,-3.9028,-3.904,0,0,0,0,0,-3.797,-3.8075,-3.807,-3.8099,-3.8251,-3.8365,-3.8384,-3.841,-3.8374,-3.8426,-3.8469,-3.8459,-3.8684,-3.8631,-3.8659,-3.8727,-3.8951,-3.8961,-3.897,-3.9008,-3.9025,-3.9039,0,0,0,0,0,0,-3.7998,-3.8086,-3.8082,-3.8216,-3.8283,-3.8362,-3.843,-3.8427,-3.8505,-3.8499,-3.8527,-3.8547,-3.8671,-3.8711,-3.865,-3.8863,-3.8813,-3.8828,-3.8832,-3.8849,-3.8862,-3.885,-3.8616,0,0,0,0,0,-3.8019,-3.8104,-3.8177,-3.8289,-3.8322,-3.837,-3.8421,-3.8435,-3.8505,-3.8533,-3.8585,-3.8654,-3.8741,-3.8797,-3.888,-3.9019,-3.9038,-3.908,-3.9093,-3.9103,-3.9116,-3.9194,-3.9213,-3.9005,-3.9005,-3.9005,0,0,-3.8065,-3.8124,-3.8176,-3.8296,-3.8349,-3.8437,-3.8394,-3.8489,-3.8554,-3.8548,-3.8667,-3.8708,-3.8787,-3.8919,-3.898,-3.8957,-3.9178,-3.9115,-3.9123,-3.913,-3.9205,-3.9225,-3.9242,-3.9011,-3.901,-3.9009,0,0,-3.8194,-3.8246,-3.8346,-3.84,-3.8481,-3.8513,-3.8536,-3.8617,-3.8643,-3.8764,-3.8761,-3.884,-3.8988,-3.9044,-3.9092,-3.9243,-3.9237,-3.9269,-3.9337,-3.9412,-3.9429,-3.9444,-3.9498,-3.9517,-3.9282,-3.9282,-3.9282,0,-3.8241,-3.8372,-3.8397,-3.8493,-3.8546,-3.8544,-3.8645,-3.8697,-3.8801,-3.8838,-3.881,-3.8997,-3.905,-3.9195,-3.9232,-3.9271,-3.93,-3.926,-3.9424,-3.9439,-3.9454,-3.9506,-3.9526,-3.9286,-3.9285,-3.9285,-3.9285,0,-3.8426,-3.8518,-3.8589,-3.8689,-3.875,-3.8848,-3.8888,-3.8947,-3.8956,-3.899,-3.9114,-3.9177,-3.9273,-3.9309,-3.9318,-3.9457,-3.944,-3.9418,-3.9368,-3.9476,-3.9526,-3.9546,-3.9291,-3.929,-3.9289,-3.9288,0,0,-3.8577,-3.869,-3.8716,-3.8762,-3.8852,-3.8923,-3.9021,-3.9115,-3.9166,-3.9238,-3.9322,-3.9447,-3.9428,-3.9483,-3.9498,-3.9564,-3.9681,-3.9535,-3.9537,-3.956,-3.9838,-3.9854,-3.9877,-3.9677,-3.9681,-3.9684,-3.9831,0,-3.8715,-3.8889,-3.8914,-3.9067,-3.9153,-3.9152,-3.9238,-3.9303,-3.9338,-3.9416,-3.9454,-3.9543,-3.9511,-3.9544,-3.9609,-3.9653,-3.9737,-3.9642,-3.9756,-3.9759,-3.9736,-3.9903,-3.992,-4.0056,-3.9851,-3.9854,-3.9857,0,-3.89,-3.8977,-3.9139,-3.9217,-3.9254,-3.933,-3.9419,-3.9493,-3.9567,-3.9588,-3.9649,-3.9657,-3.976,-3.9705,-3.9847,-3.9782,-3.983,-3.9859,-3.9865,-3.9877,-3.9815,-3.992,-4.01,-4.012,-3.9887,-3.9885,-3.9883,0,-3.8994,-3.9138,-3.9254,-3.9293,-3.9388,-3.9442,-3.9484,-3.9554,-3.9609,-3.9687,-3.9723,-3.9811,-3.986,-3.9929,-3.9961,-3.9918,-4.0101,-4.0049,-4.0122,-4.0121,-4.0161,-4.0158,-4.0352,-4.0191,-4.019,-4.019,-4.019,0,-3.9146,-3.9245,-3.9298,-3.9369,-3.948,-3.9509,-3.9619,-3.9659,-3.9721,-3.9801,-3.9806,-3.9881,-3.9918,-3.9999,-4.0024,-4.0139,-4.016,-4.0181,-4.0186,-4.0181,-4.0178,-4.0213,-4.0204,-4.0196,-4.0194,-4.0193,-4.0192,0,-3.927,-3.9309,-3.9436,-3.9515,-3.9537,-3.9616,-3.9684,-3.9754,-3.9788,-3.9889,-3.9914,-3.9968,-4.0064,-4.0102,-4.0219,-4.0236,-4.0368,-4.0366,-4.0343,-4.0345,-4.0416,-4.0409,-4.0639,-4.0671,-4.0488,-4.049,-4.0491,0,-3.9365,-3.9441,-3.9529,-3.9582,-3.9626,-3.9712,-3.9768,-3.9799,-3.9858,-3.9948,-4.0007,-4.0102,-4.018,-4.0332,-4.0382,-4.0472,-4.0473,-4.0547,-4.0486,-4.0478,-4.0475,-4.047,-4.0478,-4.0558,-4.056,-4.0562,-4.0563,0,-3.9529,-3.9545,-3.9625,-3.9714,-3.9781,-3.9852,-3.9921,-3.9964,-4.0006,-4.0072,-4.0169,-4.023,-4.0349,-4.0444,-4.0536,-4.058,-4.0579,-4.0582,-4.0604,-4.0599,-4.0583,-4.0593,-4.0374,-4.0576,-4.0575,-4.0574,-4.0573,-4.0573,-3.9642,-3.971,-3.9783,-3.9873,-3.9928,-3.9993,-4.0062,-4.0105,-4.0187,-4.0286,-4.03,-4.0404,-4.0477,-4.0601,-4.0648,-4.0731,-4.0712,-4.0743,-4.0751,-4.0759,-4.0764,-4.0569,-4.0748,-4.0747,-4.0747,-4.0747,-4.0747,0,-3.9807,-3.9854,-3.9936,-4.0033,-4.0104,-4.0096,-4.0173,-4.0233,-4.0325,-4.0392,-4.0469,-4.0581,-4.0673,-4.0731,-4.0823,-4.0879,-4.0881,-4.0902,-4.0899,-4.0909,-4.0775,-4.0747,-4.0899,-4.0899,-4.0899,-4.0899,-4.0899,-4.0899,-3.9901,-4.0016,-4.0041,-4.0184,-4.023,-4.0332,-4.0376,-4.0436,-4.049,-4.0615,-4.0692,-4.0728,-4.0793,-4.089,-4.0975,-4.0989,-4.1024,-4.1046,-4.106,-4.0934,-4.0918,-4.0903,-4.0877,-4.1053,-4.1054,-4.1187,-4.1188,-4.1189]}]]